Weather History for Athens, OH

Change the Weather History Date:

Tuesday, February 26, 2013

  Actual Average (KPKB) Record (KPKB)
Temperature  
Mean Temperature 36 °F 38 °F  
Max Temperature 44 °F 47 °F 77 °F (2000)
Min Temperature 28 °F 28 °F 3 °F (1967)
Degree Days  
Heating Degree Days 29 28  
Month to date heating degree days 792  
Since 1 July heating degree days 3737  
Cooling Degree Days 0 0  
Month to date cooling degree days 0  
Year to date cooling degree days 0  
Moisture  
Dew Point 34 °F    
Average Humidity 82    
Maximum Humidity 95    
Minimum Humidity 57    
Precipitation  
Precipitation 0.00 in 0.10 in 0.73 in (2013)
Month to date precipitation 2.50  
Year to date precipitation 5.45  
Sea Level Pressure  
Sea Level Pressure 29.66 in    
Wind  
Wind Speed 7 mph (East)    
Max Wind Speed 14 mph    
Max Gust Speed 23 mph    
Visibility 9 miles    
Events Rain    
T = Trace of Precipitation, MM = Missing Value Source: NWS Daily Summary

Daily Weather History Graph

Daily Weather History Graph

Search for Another Location

Airport:

Trip Planner

Search our weather history database for the weather conditions in past years. The results will help you decide how hot, cold, wet, or windy it might be!

Date:

Astronomy

Feb. 26, 2013 Rise Set
Actual Time 7:05 AM EST 6:18 PM EST
Civil Twilight 6:38 AM EST 6:45 PM EST
Nautical Twilight 6:07 AM EST 7:16 PM EST
Astronomical Twilight 5:36 AM EST 7:47 PM EST
Moon 7:33 PM EST (2/26) 7:08 AM EST (2/26)
Length of Visible Light 12h 06m
Length of Day
11h 12m
Full, 99% of the Moon is Illuminated
Feb 26
Full
Mar 4
Last Quarter
Mar 11
New
Mar 19
First Quarter
Mar 27
Full

Hourly Weather History & Observations

Time (EST) Temp. Windchill Dew Point Humidity Pressure Visibility Wind Dir Wind Speed Gust Speed Precip Events Conditions
12:15 AM 28.9 °F 22.8 °F 21.0 °F 72% 29.97 in 10.0 mi ENE 5.8 mph - N/A   Clear
12:35 AM 30.0 °F 23.2 °F 21.2 °F 70% 29.96 in 10.0 mi NE 6.9 mph - N/A   Clear
12:55 AM 32.0 °F - 21.2 °F 64% 29.97 in 10.0 mi Calm Calm - N/A   Clear
1:15 AM 30.4 °F 23.6 °F 21.4 °F 69% 29.95 in 10.0 mi ENE 6.9 mph - N/A   Clear
1:35 AM 30.9 °F 26.2 °F 21.9 °F 69% 29.95 in 10.0 mi ENE 4.6 mph - N/A   Clear
1:55 AM 31.1 °F 25.4 °F 22.1 °F 69% 29.92 in 10.0 mi ENE 5.8 mph - N/A   Clear
2:15 AM 31.8 °F 26.2 °F 21.9 °F 67% 29.92 in 10.0 mi ENE 5.8 mph - N/A   Clear
2:35 AM 32.0 °F 26.4 °F 22.5 °F 68% 29.91 in 10.0 mi ENE 5.8 mph - N/A   Scattered Clouds
2:55 AM 32.0 °F 26.4 °F 22.5 °F 68% 29.89 in 10.0 mi ENE 5.8 mph - N/A   Mostly Cloudy
3:15 AM 33.4 °F 28.1 °F 22.1 °F 63% 29.88 in 10.0 mi East 5.8 mph - N/A   Scattered Clouds
3:35 AM 34.3 °F 28.4 °F 21.9 °F 60% 29.86 in 10.0 mi East 6.9 mph - N/A   Clear
3:55 AM 34.2 °F 29.0 °F 21.9 °F 61% 29.86 in 10.0 mi East 5.8 mph - N/A   Clear
4:15 AM 34.0 °F 29.8 °F 22.3 °F 62% 29.86 in 10.0 mi ENE 4.6 mph - N/A   Clear
4:35 AM 34.5 °F 28.6 °F 22.6 °F 62% 29.84 in 10.0 mi ENE 6.9 mph - N/A   Scattered Clouds
4:55 AM 35.2 °F 28.8 °F 22.6 °F 60% 29.83 in 10.0 mi ENE 8.1 mph - N/A   Mostly Cloudy
5:15 AM 36.1 °F 30.6 °F 22.5 °F 58% 29.82 in 10.0 mi ENE 6.9 mph - N/A   Overcast
5:35 AM 36.5 °F 29.7 °F 23.7 °F 60% 29.81 in 10.0 mi East 9.2 mph - N/A   Overcast
5:55 AM 37.2 °F 31.9 °F 23.4 °F 57% 29.80 in 10.0 mi ENE 6.9 mph - N/A   Overcast
6:15 AM 37.6 °F 32.3 °F 23.9 °F 58% 29.79 in 10.0 mi ENE 6.9 mph - N/A   Overcast
6:55 AM 36.5 °F 31.0 °F 25.2 °F 64% 29.78 in 10.0 mi ENE 6.9 mph - N/A   Overcast
7:15 AM 36.3 °F 30.1 °F 25.9 °F 66% 29.77 in 10.0 mi ENE 8.1 mph - N/A Rain Light Rain
7:35 AM 36.1 °F 29.3 °F 27.3 °F 70% 29.77 in 10.0 mi ENE 9.2 mph - N/A Rain Rain
7:55 AM 34.3 °F 28.4 °F 29.5 °F 82% 29.77 in 7.0 mi NE 6.9 mph - N/A Rain Light Rain
8:15 AM 34.7 °F 28.8 °F 29.8 °F 82% 29.78 in 10.0 mi ENE 6.9 mph - N/A   Overcast
8:35 AM 34.7 °F 28.1 °F 30.4 °F 84% 29.78 in 10.0 mi NE 8.1 mph - N/A   Light Drizzle
8:55 AM 34.7 °F 28.8 °F 30.9 °F 86% 29.77 in 10.0 mi East 6.9 mph - N/A   Light Drizzle
9:15 AM 35.1 °F 27.9 °F 31.1 °F 85% 29.75 in 10.0 mi ENE 9.2 mph - N/A Rain Light Rain
9:35 AM 35.2 °F 28.8 °F 31.3 °F 85% 29.74 in 10.0 mi East 8.1 mph - N/A Rain Light Rain
10:15 AM 36.1 °F 28.7 °F 32.4 °F 86% 29.70 in 7.0 mi East 10.4 mph 17.3 mph N/A Rain Rain
10:35 AM 36.5 °F 29.2 °F 33.3 °F 88% 29.69 in 7.0 mi East 10.4 mph - N/A Rain Light Rain
10:55 AM 36.7 °F 29.4 °F 33.8 °F 89% 29.66 in 7.0 mi ENE 10.4 mph - N/A Rain Light Rain
11:15 AM 37.6 °F 29.6 °F 34.9 °F 90% 29.65 in 10.0 mi East 12.7 mph 21.9 mph N/A   Overcast
11:35 AM 38.5 °F 30.3 °F 35.1 °F 87% 29.64 in 10.0 mi East 13.8 mph 20.7 mph N/A   Overcast
11:55 AM 39.0 °F 31.0 °F 35.6 °F 88% 29.61 in 10.0 mi East 13.8 mph 21.9 mph N/A Rain Light Rain
12:15 PM 39.4 °F 31.4 °F 36.5 °F 89% 29.59 in 7.0 mi East 13.8 mph 23.0 mph N/A Rain Light Rain
12:35 PM 39.7 °F 34.3 °F 37.0 °F 90% 29.59 in 7.0 mi ESE 8.1 mph - N/A Rain Rain
12:55 PM 40.1 °F 34.1 °F 37.4 °F 90% 29.59 in 4.0 mi ESE 9.2 mph - N/A Rain Light Rain
1:15 PM 41.0 °F 36.4 °F 37.8 °F 88% 29.60 in 10.0 mi SE 6.9 mph - N/A   Overcast
1:35 PM 40.6 °F 36.7 °F 38.3 °F 91% 29.60 in 5.0 mi East 5.8 mph - N/A Rain Light Rain
1:55 PM 42.1 °F 34.9 °F 40.1 °F 93% 29.56 in 10.0 mi East 13.8 mph - N/A Rain Light Rain
2:15 PM 43.3 °F 37.2 °F 41.0 °F 91% 29.54 in 10.0 mi East 11.5 mph 18.4 mph N/A   Overcast
2:35 PM 43.5 °F 38.3 °F 40.3 °F 88% 29.54 in 10.0 mi East 9.2 mph - N/A   Overcast
2:55 PM 43.3 °F 38.1 °F 40.3 °F 89% 29.52 in 10.0 mi East 9.2 mph 17.3 mph N/A Rain Light Rain
3:15 PM 43.7 °F 39.1 °F 40.3 °F 88% 29.51 in 10.0 mi ENE 8.1 mph 18.4 mph N/A Rain Light Rain
3:35 PM 43.9 °F 39.9 °F 40.8 °F 89% 29.51 in 10.0 mi East 6.9 mph - N/A Rain Light Rain
3:55 PM 43.7 °F 40.3 °F 41.0 °F 90% 29.51 in 10.0 mi East 5.8 mph - N/A Rain Light Rain
4:15 PM 43.7 °F 39.7 °F 41.2 °F 91% 29.50 in 10.0 mi East 6.9 mph - N/A   Overcast
4:35 PM 43.7 °F 39.7 °F 41.4 °F 91% 29.49 in 10.0 mi East 6.9 mph - N/A Rain Light Rain
4:55 PM 43.7 °F 39.7 °F 41.4 °F 91% 29.49 in 10.0 mi East 6.9 mph - N/A   Overcast
5:15 PM 43.7 °F 38.6 °F 41.4 °F 91% 29.48 in 10.0 mi East 9.2 mph - N/A   Overcast
5:35 PM 43.7 °F 39.1 °F 41.2 °F 91% 29.49 in 10.0 mi East 8.1 mph - N/A   Overcast
5:55 PM 43.2 °F 37.9 °F 40.8 °F 91% 29.48 in 10.0 mi East 9.2 mph - N/A   Overcast
6:15 PM 43.2 °F 39.0 °F 41.0 °F 92% 29.49 in 10.0 mi ENE 6.9 mph - N/A   Overcast
6:35 PM 43.0 °F 38.8 °F 41.0 °F 93% 29.49 in 10.0 mi East 6.9 mph - N/A Rain Light Rain
6:55 PM 42.8 °F 38.0 °F 41.0 °F 93% 29.49 in 10.0 mi East 8.1 mph - N/A Rain Light Rain
7:15 PM 42.8 °F 40.1 °F 41.0 °F 93% 29.50 in 10.0 mi ENE 4.6 mph - N/A Rain Light Rain
7:35 PM 42.6 °F - 41.0 °F 94% 29.51 in 10.0 mi Calm Calm - N/A   Overcast
7:55 PM 42.6 °F - 41.0 °F 94% 29.51 in 10.0 mi Calm Calm - N/A Rain Light Rain
8:15 PM 41.9 °F - 40.3 °F 94% 29.51 in 7.0 mi Calm Calm - N/A Rain Rain
8:35 PM 41.9 °F - 40.5 °F 95% 29.50 in 4.0 mi Calm Calm - N/A Rain Light Rain
8:55 PM 41.4 °F - 40.1 °F 95% 29.51 in 1.2 mi Calm Calm - N/A Rain Light Rain
9:15 PM 43.5 °F 39.4 °F 42.3 °F 95% 29.51 in 10.0 mi South 6.9 mph - N/A   Light Drizzle
9:35 PM 43.9 °F 39.9 °F 42.1 °F 93% 29.52 in 10.0 mi SSW 6.9 mph - N/A   Overcast
9:55 PM 44.1 °F 40.1 °F 41.9 °F 92% 29.53 in 10.0 mi South 6.9 mph - N/A   Overcast
10:15 PM 43.9 °F 41.3 °F 41.9 °F 93% 29.52 in 10.0 mi South 4.6 mph - N/A   Overcast
10:35 PM 43.9 °F 41.3 °F 41.9 °F 93% 29.53 in 10.0 mi South 4.6 mph - N/A   Drizzle
10:55 PM 43.9 °F 40.5 °F 41.9 °F 93% 29.53 in 10.0 mi SSW 5.8 mph - N/A Rain Rain
11:15 PM 43.7 °F 41.1 °F 41.5 °F 92% 29.54 in 10.0 mi SSW 4.6 mph - N/A   Overcast
11:35 PM 43.7 °F 38.6 °F 41.2 °F 91% 29.54 in 10.0 mi SSW 9.2 mph - N/A Rain Rain
11:55 PM 43.5 °F 38.9 °F 41.0 °F 91% 29.54 in 7.0 mi SSW 8.1 mph - N/A Rain Rain